Adana, Turkey

10:11 AM +03 on October 22, 2017 (GMT +0300)
Adana

Weather History for LTAF - November, 2011

Change the Weather History Date:

Monday, November 7, 2011

  Actual Average Record
Temperature  
Mean Temperature 58 °F -  
Max Temperature 69 °F 68 °F 82 °F (2003)
Min Temperature 46 °F 46 °F 42 °F (2006)
Degree Days  
Heating Degree Days 8    
Growing Degree Days 8 (Base 50)    
Moisture  
Dew Point 34 °F    
Average Humidity 43    
Maximum Humidity 66    
Minimum Humidity 25    
Precipitation  
Precipitation 0.00 in 0.12 in - ()
Sea Level Pressure  
Sea Level Pressure 30.13 in    
Wind  
Wind Speed 5 mph ()    
Max Wind Speed 9 mph    
Max Gust Speed -    
Visibility 6.1 miles    
Events      
Averages and records for this station are not official NWS values.
T = Trace of Precipitation, MM = Missing Value Source: Averaged Metar Reports

Daily Weather History Graph

Daily Weather History Graph

Search for Another Location

Airport or City:

Trip Planner

Search our weather history database for the weather conditions in past years. The results will help you decide how hot, cold, wet, or windy it might be!

Date:

Astronomy

Nov. 07, 2011 Rise Set
Actual Time 6:08 AM EET 4:36 PM EET
Civil Twilight 5:41 AM EET 5:03 PM EET
Nautical Twilight 5:10 AM EET 5:34 PM EET
Astronomical Twilight 4:39 AM EET 6:04 PM EET
Moon 2:34 PM EET (11/7) 2:55 AM EET (11/7)
Length of Visible Light 11h 22m
Length of Day
10h 27m
Waxing Gibbous, 90% of the Moon is Illuminated
Nov 7
Waxing Gibbous
Nov 10
Full
Nov 18
Last Quarter
Nov 25
New
Dec 2
First Quarter

Hourly Weather History & Observations

Time (EET) Temp. Windchill Dew Point Humidity Pressure Visibility Wind Dir Wind Speed Gust Speed Precip Events Conditions
12:20 AM 51.8 °F - 32.0 °F 47% 30.15 in 6.2 mi NNE 5.8 mph - N/A   Partly Cloudy
12:50 AM 48.2 °F - 33.8 °F 58% 30.12 in 6.2 mi NNE 9.2 mph - N/A   Partly Cloudy
1:20 AM 51.8 °F - 32.0 °F 47% 30.12 in 6.2 mi NNE 4.6 mph - N/A   Partly Cloudy
1:50 AM 51.8 °F - 32.0 °F 47% 30.12 in 6.2 mi NNE 4.6 mph - N/A   Partly Cloudy
2:20 AM 48.2 °F - 33.8 °F 58% 30.12 in 6.2 mi Variable 1.2 mph - N/A   Partly Cloudy
2:50 AM 46.4 °F 44.3 °F 33.8 °F 62% 30.12 in 6.2 mi West 4.6 mph - N/A   Partly Cloudy
3:20 AM 46.4 °F 44.3 °F 35.6 °F 66% 30.12 in 6.2 mi West 4.6 mph - N/A   Partly Cloudy
3:50 AM 48.2 °F - 35.6 °F 62% 30.15 in 6.2 mi West 5.8 mph - N/A   Partly Cloudy
4:20 AM 48.2 °F - 33.8 °F 58% 30.15 in 6.2 mi Variable 2.3 mph - N/A   Partly Cloudy
4:50 AM 48.2 °F - 33.8 °F 58% 30.15 in 6.2 mi NNW 3.5 mph - N/A   Partly Cloudy
5:20 AM 46.4 °F 44.3 °F 33.8 °F 62% 30.15 in 6.2 mi North 4.6 mph - N/A   Partly Cloudy
5:50 AM 48.2 °F - 35.6 °F 62% 30.12 in 6.2 mi NNW 3.5 mph - N/A   Partly Cloudy
6:20 AM 48.2 °F - 33.8 °F 58% 30.15 in 6.2 mi NE 4.6 mph - N/A   Partly Cloudy
6:50 AM 51.8 °F - 37.4 °F 58% 30.15 in 6.2 mi ENE 4.6 mph - N/A   Partly Cloudy
7:20 AM 53.6 °F - 37.4 °F 54% 30.15 in 6.2 mi Variable 2.3 mph - N/A   Partly Cloudy
7:50 AM 53.6 °F - 37.4 °F 54% 30.15 in 6.2 mi Calm Calm - N/A   Partly Cloudy
8:20 AM 57.2 °F - 39.2 °F 51% 30.15 in 6.2 mi Variable 2.3 mph - N/A   Partly Cloudy
8:50 AM 60.8 °F - 37.4 °F 42% 30.15 in 6.2 mi South 2.3 mph - N/A   Partly Cloudy
9:20 AM 66.2 °F - 33.8 °F 30% 30.15 in 6.2 mi NE 4.6 mph - N/A   Partly Cloudy
9:50 AM 66.2 °F - 32.0 °F 28% 30.15 in - Variable 2.3 mph - N/A   Clear
10:20 AM 68.0 °F - 32.0 °F 26% 30.15 in - Variable 2.3 mph - N/A   Clear
10:50 AM 68.0 °F - 35.6 °F 30% 30.12 in - South 3.5 mph - N/A   Clear
11:20 AM 68.0 °F - 35.6 °F 30% 30.12 in - SE 3.5 mph - N/A   Clear
11:50 AM 68.0 °F - 37.4 °F 33% 30.09 in - Variable 2.3 mph - N/A   Clear
12:20 PM 69.8 °F - 39.2 °F 33% 30.09 in - SW 5.8 mph - N/A   Clear
12:50 PM 69.8 °F - 39.2 °F 33% 30.09 in - South 6.9 mph - N/A   Clear
1:20 PM 69.8 °F - 39.2 °F 33% 30.09 in - South 6.9 mph - N/A   Clear
1:50 PM 69.8 °F - 37.4 °F 31% 30.09 in - South 5.8 mph - N/A   Clear
2:20 PM 69.8 °F - 39.2 °F 33% 30.09 in - South 5.8 mph - N/A   Clear
2:50 PM 69.8 °F - 41.0 °F 35% 30.09 in - SSW 6.9 mph - N/A   Clear
3:20 PM 69.8 °F - 39.2 °F 33% 30.09 in - SW 6.9 mph - N/A   Clear
3:50 PM 68.0 °F - 41.0 °F 37% 30.09 in - SW 6.9 mph - N/A   Clear
4:20 PM 64.4 °F - 42.8 °F 45% 30.09 in - WSW 6.9 mph - N/A   Clear
4:50 PM 60.8 °F - 42.8 °F 52% 30.09 in - SW 5.8 mph - N/A   Clear
5:20 PM 60.8 °F - 42.8 °F 52% 30.12 in - WSW 3.5 mph - N/A   Clear
5:50 PM 57.2 °F - 42.8 °F 59% 30.12 in 3.7 mi East 4.6 mph - N/A   Unknown
6:20 PM 57.2 °F - 41.0 °F 55% 30.12 in - NE 5.8 mph - N/A   Clear
6:50 PM 59.0 °F - 26.6 °F 29% 30.12 in - ENE 8.1 mph - N/A   Clear
7:20 PM 53.6 °F - 24.8 °F 33% 30.15 in - NE 8.1 mph - N/A   Clear
7:50 PM 55.4 °F - 23.0 °F 29% 30.15 in - NE 3.5 mph - N/A   Clear
8:20 PM 53.6 °F - 26.6 °F 35% 30.15 in - East 3.5 mph - N/A   Clear
8:50 PM 55.4 °F - 24.8 °F 31% 30.15 in - NNW 4.6 mph - N/A   Clear
9:20 PM 57.2 °F - 23.0 °F 27% 30.15 in - NNE 9.2 mph - N/A   Clear
9:50 PM 57.2 °F - 23.0 °F 27% 30.18 in - North 6.9 mph - N/A   Clear
10:20 PM 57.2 °F - 21.2 °F 25% 30.18 in - NNE 9.2 mph - N/A   Clear
10:50 PM 55.4 °F - 23.0 °F 29% 30.18 in - NNE 8.1 mph - N/A   Clear
11:20 PM 53.6 °F - 21.2 °F 28% 30.18 in - NNE 9.2 mph - N/A   Clear